owner,sensor,date,latitude,longitude,vertical_datum,sea_water_practical_salinity,qcFlag 
NERRS,ioos:station:NOAA.NERRS:gndpcwq:1,2016-04-01T00:45:00Z,30.3486,-88.4185,1.54,4.8,1111122 
NERRS,ioos:station:NOAA.NERRS:gndpcwq:1,2016-04-01T01:45:00Z,30.3486,-88.4185,1.49,4.9,1111122 
NERRS,ioos:station:NOAA.NERRS:gndpcwq:1,2016-04-01T02:45:00Z,30.3486,-88.4185,1.45,4.9,1111122 
NERRS,ioos:station:NOAA.NERRS:gndpcwq:1,2016-04-01T03:45:00Z,30.3486,-88.4185,1.41,4.8,1111122 
NERRS,ioos:station:NOAA.NERRS:gndpcwq:1,2016-04-01T04:45:00Z,30.3486,-88.4185,1.37,4.9,1111122 
NERRS,ioos:station:NOAA.NERRS:gndpcwq:1,2016-04-01T05:45:00Z,30.3486,-88.4185,1.33,4.9,1111122 
NERRS,ioos:station:NOAA.NERRS:gndpcwq:1,2016-04-01T06:45:00Z,30.3486,-88.4185,1.28,5.0,1111122 
NERRS,ioos:station:NOAA.NERRS:gndpcwq:1,2016-04-01T07:45:00Z,30.3486,-88.4185,1.28,5.0,1111122 
NERRS,ioos:station:NOAA.NERRS:gndpcwq:1,2016-04-01T08:45:00Z,30.3486,-88.4185,1.32,5.0,1111122 
NERRS,ioos:station:NOAA.NERRS:gndpcwq:1,2016-04-01T09:45:00Z,30.3486,-88.4185,1.32,5.0,1111122 
NERRS,ioos:station:NOAA.NERRS:gndpcwq:1,2016-04-01T10:45:00Z,30.3486,-88.4185,1.35,5.0,1111122 
NERRS,ioos:station:NOAA.NERRS:gndpcwq:1,2016-04-01T11:45:00Z,30.3486,-88.4185,1.39,5.0,1111122 
NERRS,ioos:station:NOAA.NERRS:gndpcwq:1,2016-04-01T12:45:00Z,30.3486,-88.4185,1.43,4.9,1111122 
NERRS,ioos:station:NOAA.NERRS:gndpcwq:1,2016-04-01T13:45:00Z,30.3486,-88.4185,1.47,4.9,1111122 
NERRS,ioos:station:NOAA.NERRS:gndpcwq:1,2016-04-01T14:45:00Z,30.3486,-88.4185,1.54,4.9,1111122 
NERRS,ioos:station:NOAA.NERRS:gndpcwq:1,2016-04-01T15:45:00Z,30.3486,-88.4185,1.55,4.9,1111122 
NERRS,ioos:station:NOAA.NERRS:gndpcwq:1,2016-04-01T16:45:00Z,30.3486,-88.4185,1.56,4.9,1111122 
NERRS,ioos:station:NOAA.NERRS:gndpcwq:1,2016-04-01T17:45:00Z,30.3486,-88.4185,1.49,4.9,1111122 
NERRS,ioos:station:NOAA.NERRS:gndpcwq:1,2016-04-01T18:45:00Z,30.3486,-88.4185,1.47,4.9,1111122 
NERRS,ioos:station:NOAA.NERRS:gndpcwq:1,2016-04-01T19:45:00Z,30.3486,-88.4185,1.46,4.8,1111122 
NERRS,ioos:station:NOAA.NERRS:gndpcwq:1,2016-04-01T20:45:00Z,30.3486,-88.4185,1.52,4.8,1111122 
NERRS,ioos:station:NOAA.NERRS:gndpcwq:1,2016-04-01T21:45:00Z,30.3486,-88.4185,1.55,4.9,1111122 
NERRS,ioos:station:NOAA.NERRS:gndpcwq:1,2016-04-01T22:45:00Z,30.3486,-88.4185,1.53,5.6,1111122 
NERRS,ioos:station:NOAA.NERRS:gndpcwq:1,2016-04-01T23:45:00Z,30.3486,-88.4185,1.47,5.2,1111122 
NERRS,ioos:station:NOAA.NERRS:gndpcwq:1,2016-04-02T00:45:00Z,30.3486,-88.4185,1.37,5.0,1111122 
NERRS,ioos:station:NOAA.NERRS:gndpcwq:1,2016-04-02T01:45:00Z,30.3486,-88.4185,1.29,4.9,1111122 
NERRS,ioos:station:NOAA.NERRS:gndpcwq:1,2016-04-02T02:45:00Z,30.3486,-88.4185,1.24,4.7,1111122 
NERRS,ioos:station:NOAA.NERRS:gndpcwq:1,2016-04-02T03:45:00Z,30.3486,-88.4185,1.16,4.7,1111122 
NERRS,ioos:station:NOAA.NERRS:gndpcwq:1,2016-04-02T04:45:00Z,30.3486,-88.4185,1.2,4.7,1111122 
NERRS,ioos:station:NOAA.NERRS:gndpcwq:1,2016-04-02T05:45:00Z,30.3486,-88.4185,1.22,4.7,1111122 
NERRS,ioos:station:NOAA.NERRS:gndpcwq:1,2016-04-02T06:45:00Z,30.3486,-88.4185,1.13,4.7,1111122 
NERRS,ioos:station:NOAA.NERRS:gndpcwq:1,2016-04-02T07:45:00Z,30.3486,-88.4185,1.11,4.7,1111122 
NERRS,ioos:station:NOAA.NERRS:gndpcwq:1,2016-04-02T08:45:00Z,30.3486,-88.4185,1.1,4.7,1111122 
NERRS,ioos:station:NOAA.NERRS:gndpcwq:1,2016-04-02T09:45:00Z,30.3486,-88.4185,1.11,4.8,1111122 
NERRS,ioos:station:NOAA.NERRS:gndpcwq:1,2016-04-02T10:45:00Z,30.3486,-88.4185,1.08,4.8,1111122 
NERRS,ioos:station:NOAA.NERRS:gndpcwq:1,2016-04-02T11:45:00Z,30.3486,-88.4185,1.14,4.8,1111122 
NERRS,ioos:station:NOAA.NERRS:gndpcwq:1,2016-04-02T12:45:00Z,30.3486,-88.4185,1.17,4.9,1111122 
NERRS,ioos:station:NOAA.NERRS:gndpcwq:1,2016-04-02T13:45:00Z,30.3486,-88.4185,1.25,4.9,1111122 
NERRS,ioos:station:NOAA.NERRS:gndpcwq:1,2016-04-02T14:45:00Z,30.3486,-88.4185,1.28,4.9,1111122 
NERRS,ioos:station:NOAA.NERRS:gndpcwq:1,2016-04-02T15:45:00Z,30.3486,-88.4185,1.36,5.0,1111122 
NERRS,ioos:station:NOAA.NERRS:gndpcwq:1,2016-04-02T16:45:00Z,30.3486,-88.4185,1.39,5.0,1111122 
NERRS,ioos:station:NOAA.NERRS:gndpcwq:1,2016-04-02T17:45:00Z,30.3486,-88.4185,1.44,5.0,1111122 
NERRS,ioos:station:NOAA.NERRS:gndpcwq:1,2016-04-02T18:45:00Z,30.3486,-88.4185,1.48,5.0,1111122 
NERRS,ioos:station:NOAA.NERRS:gndpcwq:1,2016-04-02T19:45:00Z,30.3486,-88.4185,1.5,5.1,1111122 
NERRS,ioos:station:NOAA.NERRS:gndpcwq:1,2016-04-02T20:45:00Z,30.3486,-88.4185,1.47,5.5,1111122 
NERRS,ioos:station:NOAA.NERRS:gndpcwq:1,2016-04-02T21:45:00Z,30.3486,-88.4185,1.49,5.7,1111122 
NERRS,ioos:station:NOAA.NERRS:gndpcwq:1,2016-04-02T22:45:00Z,30.3486,-88.4185,1.47,5.8,1111122 
NERRS,ioos:station:NOAA.NERRS:gndpcwq:1,2016-04-02T23:45:00Z,30.3486,-88.4185,1.47,5.9,1111122 
NERRS,ioos:station:NOAA.NERRS:gndpcwq:1,2016-04-03T00:45:00Z,30.3486,-88.4185,1.43,6.9,1111122 
NERRS,ioos:station:NOAA.NERRS:gndpcwq:1,2016-04-03T01:45:00Z,30.3486,-88.4185,1.38,8.3,1111122 
NERRS,ioos:station:NOAA.NERRS:gndpcwq:1,2016-04-03T02:45:00Z,30.3486,-88.4185,1.3,9.2,1111122 
NERRS,ioos:station:NOAA.NERRS:gndpcwq:1,2016-04-03T03:45:00Z,30.3486,-88.4185,1.23,10.0,1111122 
NERRS,ioos:station:NOAA.NERRS:gndpcwq:1,2016-04-03T04:45:00Z,30.3486,-88.4185,1.15,10.5,1111122 
NERRS,ioos:station:NOAA.NERRS:gndpcwq:1,2016-04-03T05:45:00Z,30.3486,-88.4185,1.1,10.6,1111122 
NERRS,ioos:station:NOAA.NERRS:gndpcwq:1,2016-04-03T06:45:00Z,30.3486,-88.4185,1.06,10.5,1111122 
NERRS,ioos:station:NOAA.NERRS:gndpcwq:1,2016-04-03T07:45:00Z,30.3486,-88.4185,1.02,10.6,1111122 
NERRS,ioos:station:NOAA.NERRS:gndpcwq:1,2016-04-03T08:45:00Z,30.3486,-88.4185,1.03,10.5,1111122 
NERRS,ioos:station:NOAA.NERRS:gndpcwq:1,2016-04-03T09:45:00Z,30.3486,-88.4185,1.09,10.8,1111122 
NERRS,ioos:station:NOAA.NERRS:gndpcwq:1,2016-04-03T10:45:00Z,30.3486,-88.4185,1.14,11.0,1111122 
NERRS,ioos:station:NOAA.NERRS:gndpcwq:1,2016-04-03T11:45:00Z,30.3486,-88.4185,1.2,10.8,1111122 
NERRS,ioos:station:NOAA.NERRS:gndpcwq:1,2016-04-03T12:45:00Z,30.3486,-88.4185,1.26,10.7,1111122 
NERRS,ioos:station:NOAA.NERRS:gndpcwq:1,2016-04-03T14:45:00Z,30.3486,-88.4185,-1.0,9.6,1111122 
NERRS,ioos:station:NOAA.NERRS:gndpcwq:1,2016-04-03T16:45:00Z,30.3486,-88.4185,1.4,9.3,1111122 
NERRS,ioos:station:NOAA.NERRS:gndpcwq:1,2016-04-03T17:45:00Z,30.3486,-88.4185,1.41,9.7,1111122 
NERRS,ioos:station:NOAA.NERRS:gndpcwq:1,2016-04-03T19:45:00Z,30.3486,-88.4185,1.46,9.8,1111122 
NERRS,ioos:station:NOAA.NERRS:gndpcwq:1,2016-04-03T20:45:00Z,30.3486,-88.4185,1.5,9.7,1111122 
NERRS,ioos:station:NOAA.NERRS:gndpcwq:1,2016-04-04T00:45:00Z,30.3486,-88.4185,1.48,9.2,1111122 
NERRS,ioos:station:NOAA.NERRS:gndpcwq:1,2016-04-04T04:45:00Z,30.3486,-88.4185,1.34,9.0,1111122 
NERRS,ioos:station:NOAA.NERRS:gndpcwq:1,2016-04-04T16:45:00Z,30.3486,-88.4185,1.26,8.8,1111122 
NERRS,ioos:station:NOAA.NERRS:gndpcwq:1,2016-04-04T17:45:00Z,30.3486,-88.4185,1.28,8.9,1111122 
NERRS,ioos:station:NOAA.NERRS:gndpcwq:1,2016-04-04T18:45:00Z,30.3486,-88.4185,1.28,8.8,1111122 
NERRS,ioos:station:NOAA.NERRS:gndpcwq:1,2016-04-04T19:45:00Z,30.3486,-88.4185,1.3,8.8,1111122 
NERRS,ioos:station:NOAA.NERRS:gndpcwq:1,2016-04-04T20:45:00Z,30.3486,-88.4185,1.35,8.8,1111122 
NERRS,ioos:station:NOAA.NERRS:gndpcwq:1,2016-04-04T21:45:00Z,30.3486,-88.4185,1.39,8.8,1111122 
NERRS,ioos:station:NOAA.NERRS:gndpcwq:1,2016-04-04T22:45:00Z,30.3486,-88.4185,1.42,8.8,1111122 
NERRS,ioos:station:NOAA.NERRS:gndpcwq:1,2016-04-04T23:45:00Z,30.3486,-88.4185,1.44,8.9,1111122 
NERRS,ioos:station:NOAA.NERRS:gndpcwq:1,2016-04-05T00:45:00Z,30.3486,-88.4185,1.44,8.8,1111122 
NERRS,ioos:station:NOAA.NERRS:gndpcwq:1,2016-04-05T01:45:00Z,30.3486,-88.4185,1.45,8.8,1111122 
NERRS,ioos:station:NOAA.NERRS:gndpcwq:1,2016-04-05T02:45:00Z,30.3486,-88.4185,1.46,8.8,1111122 
NERRS,ioos:station:NOAA.NERRS:gndpcwq:1,2016-04-05T03:45:00Z,30.3486,-88.4185,1.44,8.9,1111122 
NERRS,ioos:station:NOAA.NERRS:gndpcwq:1,2016-04-05T04:45:00Z,30.3486,-88.4185,1.4,8.9,1111122 
NERRS,ioos:station:NOAA.NERRS:gndpcwq:1,2016-04-05T05:45:00Z,30.3486,-88.4185,1.33,8.8,1111122 
NERRS,ioos:station:NOAA.NERRS:gndpcwq:1,2016-04-05T06:45:00Z,30.3486,-88.4185,1.23,8.9,1111122 
NERRS,ioos:station:NOAA.NERRS:gndpcwq:1,2016-04-05T07:45:00Z,30.3486,-88.4185,1.18,8.9,1111122 
NERRS,ioos:station:NOAA.NERRS:gndpcwq:1,2016-04-05T16:45:00Z,30.3486,-88.4185,1.37,14.8,1111122 
NERRS,ioos:station:NOAA.NERRS:gndpcwq:1,2016-04-05T17:45:00Z,30.3486,-88.4185,1.36,14.7,1111122 
NERRS,ioos:station:NOAA.NERRS:gndpcwq:1,2016-04-05T18:45:00Z,30.3486,-88.4185,1.32,14.7,1111122 
NERRS,ioos:station:NOAA.NERRS:gndpcwq:1,2016-04-05T19:45:00Z,30.3486,-88.4185,1.31,14.5,1111122 
NERRS,ioos:station:NOAA.NERRS:gndpcwq:1,2016-04-05T20:45:00Z,30.3486,-88.4185,1.32,14.4,1111122 
NERRS,ioos:station:NOAA.NERRS:gndpcwq:1,2016-04-05T21:45:00Z,30.3486,-88.4185,1.38,14.5,1111122 
NERRS,ioos:station:NOAA.NERRS:gndpcwq:1,2016-04-05T22:45:00Z,30.3486,-88.4185,1.43,14.5,1111122 
NERRS,ioos:station:NOAA.NERRS:gndpcwq:1,2016-04-05T23:45:00Z,30.3486,-88.4185,1.46,14.3,1111122 
NERRS,ioos:station:NOAA.NERRS:gndpcwq:1,2016-04-06T00:45:00Z,30.3486,-88.4185,1.47,14.2,1111122 
NERRS,ioos:station:NOAA.NERRS:gndpcwq:1,2016-04-06T01:45:00Z,30.3486,-88.4185,1.47,14.1,1111122 
NERRS,ioos:station:NOAA.NERRS:gndpcwq:1,2016-04-06T02:45:00Z,30.3486,-88.4185,1.47,14.1,1111122 
NERRS,ioos:station:NOAA.NERRS:gndpcwq:1,2016-04-06T03:45:00Z,30.3486,-88.4185,1.49,14.1,1111122 
NERRS,ioos:station:NOAA.NERRS:gndpcwq:1,2016-04-06T04:45:00Z,30.3486,-88.4185,1.46,14.2,1111122 
NERRS,ioos:station:NOAA.NERRS:gndpcwq:1,2016-04-06T05:45:00Z,30.3486,-88.4185,1.4,14.1,1111122 
NERRS,ioos:station:NOAA.NERRS:gndpcwq:1,2016-04-06T06:45:00Z,30.3486,-88.4185,1.34,14.2,1111122 
NERRS,ioos:station:NOAA.NERRS:gndpcwq:1,2016-04-06T07:45:00Z,30.3486,-88.4185,1.27,14.2,1111122 
NERRS,ioos:station:NOAA.NERRS:gndpcwq:1,2016-04-06T08:45:00Z,30.3486,-88.4185,1.24,14.0,1111122 
NERRS,ioos:station:NOAA.NERRS:gndpcwq:1,2016-04-06T09:45:00Z,30.3486,-88.4185,1.25,14.0,1111122 
NERRS,ioos:station:NOAA.NERRS:gndpcwq:1,2016-04-06T10:45:00Z,30.3486,-88.4185,1.29,14.1,1111122 
NERRS,ioos:station:NOAA.NERRS:gndpcwq:1,2016-04-06T11:45:00Z,30.3486,-88.4185,1.35,14.5,1111122 
NERRS,ioos:station:NOAA.NERRS:gndpcwq:1,2016-04-06T12:45:00Z,30.3486,-88.4185,1.4,14.3,1111122 
NERRS,ioos:station:NOAA.NERRS:gndpcwq:1,2016-04-06T13:45:00Z,30.3486,-88.4185,1.42,14.3,1111122 
NERRS,ioos:station:NOAA.NERRS:gndpcwq:1,2016-04-06T14:45:00Z,30.3486,-88.4185,1.46,14.3,1111122 
NERRS,ioos:station:NOAA.NERRS:gndpcwq:1,2016-04-06T15:45:00Z,30.3486,-88.4185,1.49,15.5,1111122 
NERRS,ioos:station:NOAA.NERRS:gndpcwq:1,2016-04-06T16:45:00Z,30.3486,-88.4185,1.51,15.9,1111122 
NERRS,ioos:station:NOAA.NERRS:gndpcwq:1,2016-04-06T17:45:00Z,30.3486,-88.4185,1.45,16.0,1111122 
NERRS,ioos:station:NOAA.NERRS:gndpcwq:1,2016-04-06T18:45:00Z,30.3486,-88.4185,1.36,16.0,1111122 
NERRS,ioos:station:NOAA.NERRS:gndpcwq:1,2016-04-06T19:45:00Z,30.3486,-88.4185,1.31,15.8,1111122 
NERRS,ioos:station:NOAA.NERRS:gndpcwq:1,2016-04-06T20:45:00Z,30.3486,-88.4185,1.26,15.6,1111122 
NERRS,ioos:station:NOAA.NERRS:gndpcwq:1,2016-04-06T21:45:00Z,30.3486,-88.4185,1.28,15.4,1111122 
NERRS,ioos:station:NOAA.NERRS:gndpcwq:1,2016-04-06T22:45:00Z,30.3486,-88.4185,1.35,15.2,1111122 
NERRS,ioos:station:NOAA.NERRS:gndpcwq:1,2016-04-06T23:45:00Z,30.3486,-88.4185,1.43,14.6,1111122 
NERRS,ioos:station:NOAA.NERRS:gndpcwq:1,2016-04-07T00:45:00Z,30.3486,-88.4185,1.47,14.4,1111122 
NERRS,ioos:station:NOAA.NERRS:gndpcwq:1,2016-04-07T01:45:00Z,30.3486,-88.4185,1.5,14.2,1111122 
NERRS,ioos:station:NOAA.NERRS:gndpcwq:1,2016-04-07T02:45:00Z,30.3486,-88.4185,1.47,14.2,1111122 
NERRS,ioos:station:NOAA.NERRS:gndpcwq:1,2016-04-07T03:45:00Z,30.3486,-88.4185,1.46,14.2,1111122 
NERRS,ioos:station:NOAA.NERRS:gndpcwq:1,2016-04-07T04:45:00Z,30.3486,-88.4185,1.47,14.3,1111122 
NERRS,ioos:station:NOAA.NERRS:gndpcwq:1,2016-04-07T05:45:00Z,30.3486,-88.4185,1.47,14.3,1111122 
NERRS,ioos:station:NOAA.NERRS:gndpcwq:1,2016-04-07T06:45:00Z,30.3486,-88.4185,1.45,14.3,1111122 
NERRS,ioos:station:NOAA.NERRS:gndpcwq:1,2016-04-07T07:45:00Z,30.3486,-88.4185,1.42,14.1,1111122 
NERRS,ioos:station:NOAA.NERRS:gndpcwq:1,2016-04-07T08:45:00Z,30.3486,-88.4185,1.36,14.2,1111122 
NERRS,ioos:station:NOAA.NERRS:gndpcwq:1,2016-04-07T09:45:00Z,30.3486,-88.4185,1.35,14.3,1111122 
NERRS,ioos:station:NOAA.NERRS:gndpcwq:1,2016-04-07T10:45:00Z,30.3486,-88.4185,1.36,14.2,1111122 
NERRS,ioos:station:NOAA.NERRS:gndpcwq:1,2016-04-07T11:45:00Z,30.3486,-88.4185,1.38,14.1,1111122 
NERRS,ioos:station:NOAA.NERRS:gndpcwq:1,2016-04-07T12:45:00Z,30.3486,-88.4185,1.42,14.4,1111122 
NERRS,ioos:station:NOAA.NERRS:gndpcwq:1,2016-04-07T13:45:00Z,30.3486,-88.4185,1.46,14.6,1111122 
NERRS,ioos:station:NOAA.NERRS:gndpcwq:1,2016-04-07T14:45:00Z,30.3486,-88.4185,1.49,14.6,1111122 
NERRS,ioos:station:NOAA.NERRS:gndpcwq:1,2016-04-07T15:45:00Z,30.3486,-88.4185,1.48,14.6,1111122 
NERRS,ioos:station:NOAA.NERRS:gndpcwq:1,2016-04-07T16:45:00Z,30.3486,-88.4185,1.46,14.5,1111122 
NERRS,ioos:station:NOAA.NERRS:gndpcwq:1,2016-04-07T17:45:00Z,30.3486,-88.4185,1.48,14.4,1111122 
NERRS,ioos:station:NOAA.NERRS:gndpcwq:1,2016-04-07T18:45:00Z,30.3486,-88.4185,1.46,14.4,1111122 
NERRS,ioos:station:NOAA.NERRS:gndpcwq:1,2016-04-07T19:45:00Z,30.3486,-88.4185,1.39,14.4,1111122 
NERRS,ioos:station:NOAA.NERRS:gndpcwq:1,2016-04-07T20:45:00Z,30.3486,-88.4185,1.32,14.2,1111122 
NERRS,ioos:station:NOAA.NERRS:gndpcwq:1,2016-04-07T21:45:00Z,30.3486,-88.4185,1.27,14.2,1111122 
NERRS,ioos:station:NOAA.NERRS:gndpcwq:1,2016-04-07T22:45:00Z,30.3486,-88.4185,1.27,14.2,1111122 
NERRS,ioos:station:NOAA.NERRS:gndpcwq:1,2016-04-07T23:45:00Z,30.3486,-88.4185,1.32,14.2,1111122 
NERRS,ioos:station:NOAA.NERRS:gndpcwq:1,2016-04-08T00:45:00Z,30.3486,-88.4185,1.35,14.3,1111122 
NERRS,ioos:station:NOAA.NERRS:gndpcwq:1,2016-04-08T01:45:00Z,30.3486,-88.4185,1.36,14.3,1111122 
NERRS,ioos:station:NOAA.NERRS:gndpcwq:1,2016-04-08T02:45:00Z,30.3486,-88.4185,1.36,14.3,1111122 
NERRS,ioos:station:NOAA.NERRS:gndpcwq:1,2016-04-08T03:45:00Z,30.3486,-88.4185,1.36,14.3,1111122 
NERRS,ioos:station:NOAA.NERRS:gndpcwq:1,2016-04-08T04:45:00Z,30.3486,-88.4185,1.39,14.4,1111122 
NERRS,ioos:station:NOAA.NERRS:gndpcwq:1,2016-04-08T05:45:00Z,30.3486,-88.4185,1.43,14.4,1111122 
NERRS,ioos:station:NOAA.NERRS:gndpcwq:1,2016-04-08T06:45:00Z,30.3486,-88.4185,1.42,14.2,1111122 
NERRS,ioos:station:NOAA.NERRS:gndpcwq:1,2016-04-08T07:45:00Z,30.3486,-88.4185,1.41,14.1,1111122 
NERRS,ioos:station:NOAA.NERRS:gndpcwq:1,2016-04-08T08:45:00Z,30.3486,-88.4185,1.38,14.0,1111122 
NERRS,ioos:station:NOAA.NERRS:gndpcwq:1,2016-04-08T09:45:00Z,30.3486,-88.4185,1.37,13.1,1111122 
NERRS,ioos:station:NOAA.NERRS:gndpcwq:1,2016-04-08T10:45:00Z,30.3486,-88.4185,1.4,13.0,1111122 
NERRS,ioos:station:NOAA.NERRS:gndpcwq:1,2016-04-08T11:45:00Z,30.3486,-88.4185,1.42,12.9,1111122 
NERRS,ioos:station:NOAA.NERRS:gndpcwq:1,2016-04-08T12:45:00Z,30.3486,-88.4185,1.43,12.9,1111122 
NERRS,ioos:station:NOAA.NERRS:gndpcwq:1,2016-04-08T13:45:00Z,30.3486,-88.4185,1.47,12.5,1111122 
NERRS,ioos:station:NOAA.NERRS:gndpcwq:1,2016-04-08T14:45:00Z,30.3486,-88.4185,1.46,12.7,1111122 
NERRS,ioos:station:NOAA.NERRS:gndpcwq:1,2016-04-08T15:45:00Z,30.3486,-88.4185,1.46,14.0,1111122 
NERRS,ioos:station:NOAA.NERRS:gndpcwq:1,2016-04-08T16:45:00Z,30.3486,-88.4185,1.45,13.9,1111122 
NERRS,ioos:station:NOAA.NERRS:gndpcwq:1,2016-04-08T17:45:00Z,30.3486,-88.4185,1.49,13.4,1111122 
NERRS,ioos:station:NOAA.NERRS:gndpcwq:1,2016-04-08T18:45:00Z,30.3486,-88.4185,1.48,13.3,1111122 
NERRS,ioos:station:NOAA.NERRS:gndpcwq:1,2016-04-08T19:45:00Z,30.3486,-88.4185,1.42,13.3,1111122 
NERRS,ioos:station:NOAA.NERRS:gndpcwq:1,2016-04-08T20:45:00Z,30.3486,-88.4185,1.3,13.4,1111122 
NERRS,ioos:station:NOAA.NERRS:gndpcwq:1,2016-04-08T21:45:00Z,30.3486,-88.4185,1.2,13.8,1111122 
NERRS,ioos:station:NOAA.NERRS:gndpcwq:1,2016-04-08T22:45:00Z,30.3486,-88.4185,1.16,13.9,1111122 
NERRS,ioos:station:NOAA.NERRS:gndpcwq:1,2016-04-08T23:45:00Z,30.3486,-88.4185,1.16,14.0,1111122 
NERRS,ioos:station:NOAA.NERRS:gndpcwq:1,2016-04-09T00:45:00Z,30.3486,-88.4185,1.16,14.1,1111122 
NERRS,ioos:station:NOAA.NERRS:gndpcwq:1,2016-04-09T01:45:00Z,30.3486,-88.4185,1.14,14.1,1111122 
NERRS,ioos:station:NOAA.NERRS:gndpcwq:1,2016-04-09T02:45:00Z,30.3486,-88.4185,1.12,14.2,1111122 
NERRS,ioos:station:NOAA.NERRS:gndpcwq:1,2016-04-09T03:45:00Z,30.3486,-88.4185,1.09,14.1,1111122 
NERRS,ioos:station:NOAA.NERRS:gndpcwq:1,2016-04-09T04:45:00Z,30.3486,-88.4185,1.11,14.1,1111122 
NERRS,ioos:station:NOAA.NERRS:gndpcwq:1,2016-04-09T05:45:00Z,30.3486,-88.4185,1.13,14.2,1111122 
NERRS,ioos:station:NOAA.NERRS:gndpcwq:1,2016-04-09T06:45:00Z,30.3486,-88.4185,1.21,14.0,1111122 
NERRS,ioos:station:NOAA.NERRS:gndpcwq:1,2016-04-09T07:45:00Z,30.3486,-88.4185,1.29,13.7,1111122 
NERRS,ioos:station:NOAA.NERRS:gndpcwq:1,2016-04-09T08:45:00Z,30.3486,-88.4185,1.35,13.9,1111122 
NERRS,ioos:station:NOAA.NERRS:gndpcwq:1,2016-04-09T09:45:00Z,30.3486,-88.4185,1.38,14.1,1111122 
NERRS,ioos:station:NOAA.NERRS:gndpcwq:1,2016-04-09T10:45:00Z,30.3486,-88.4185,1.41,14.1,1111122 
NERRS,ioos:station:NOAA.NERRS:gndpcwq:1,2016-04-09T11:45:00Z,30.3486,-88.4185,1.46,13.8,1111122 
NERRS,ioos:station:NOAA.NERRS:gndpcwq:1,2016-04-09T12:45:00Z,30.3486,-88.4185,1.54,13.9,1111122 
NERRS,ioos:station:NOAA.NERRS:gndpcwq:1,2016-04-09T13:45:00Z,30.3486,-88.4185,1.59,14.1,1111122 
NERRS,ioos:station:NOAA.NERRS:gndpcwq:1,2016-04-09T14:45:00Z,30.3486,-88.4185,1.61,14.0,1111122 
NERRS,ioos:station:NOAA.NERRS:gndpcwq:1,2016-04-09T15:45:00Z,30.3486,-88.4185,1.62,14.5,1111122 
NERRS,ioos:station:NOAA.NERRS:gndpcwq:1,2016-04-09T16:45:00Z,30.3486,-88.4185,1.6,14.5,1111122 
NERRS,ioos:station:NOAA.NERRS:gndpcwq:1,2016-04-09T17:45:00Z,30.3486,-88.4185,1.58,14.3,1111122 
NERRS,ioos:station:NOAA.NERRS:gndpcwq:1,2016-04-09T18:45:00Z,30.3486,-88.4185,1.54,13.7,1111122 
NERRS,ioos:station:NOAA.NERRS:gndpcwq:1,2016-04-09T19:45:00Z,30.3486,-88.4185,1.48,13.6,1111122 
NERRS,ioos:station:NOAA.NERRS:gndpcwq:1,2016-04-09T20:45:00Z,30.3486,-88.4185,1.41,13.5,1111122 
NERRS,ioos:station:NOAA.NERRS:gndpcwq:1,2016-04-09T21:45:00Z,30.3486,-88.4185,1.33,13.3,1111122 
NERRS,ioos:station:NOAA.NERRS:gndpcwq:1,2016-04-09T22:45:00Z,30.3486,-88.4185,1.24,13.2,1111122 
NERRS,ioos:station:NOAA.NERRS:gndpcwq:1,2016-04-09T23:45:00Z,30.3486,-88.4185,1.18,13.1,1111122 
NERRS,ioos:station:NOAA.NERRS:gndpcwq:1,2016-04-10T00:45:00Z,30.3486,-88.4185,1.15,13.2,1111122 
NERRS,ioos:station:NOAA.NERRS:gndpcwq:1,2016-04-10T01:45:00Z,30.3486,-88.4185,1.13,13.2,1111122 
NERRS,ioos:station:NOAA.NERRS:gndpcwq:1,2016-04-10T02:45:00Z,30.3486,-88.4185,1.13,13.2,1111122 
NERRS,ioos:station:NOAA.NERRS:gndpcwq:1,2016-04-10T03:45:00Z,30.3486,-88.4185,1.15,13.2,1111122 
NERRS,ioos:station:NOAA.NERRS:gndpcwq:1,2016-04-10T04:45:00Z,30.3486,-88.4185,1.19,13.2,1111122 
NERRS,ioos:station:NOAA.NERRS:gndpcwq:1,2016-04-10T05:45:00Z,30.3486,-88.4185,1.24,13.4,1111122 
NERRS,ioos:station:NOAA.NERRS:gndpcwq:1,2016-04-10T06:45:00Z,30.3486,-88.4185,1.3,13.2,1111122 
NERRS,ioos:station:NOAA.NERRS:gndpcwq:1,2016-04-10T07:45:00Z,30.3486,-88.4185,1.34,13.3,1111122 
NERRS,ioos:station:NOAA.NERRS:gndpcwq:1,2016-04-10T08:45:00Z,30.3486,-88.4185,1.37,13.3,1111122 
NERRS,ioos:station:NOAA.NERRS:gndpcwq:1,2016-04-10T09:45:00Z,30.3486,-88.4185,1.39,13.3,1111122 
NERRS,ioos:station:NOAA.NERRS:gndpcwq:1,2016-04-10T10:45:00Z,30.3486,-88.4185,1.43,13.3,1111122 
NERRS,ioos:station:NOAA.NERRS:gndpcwq:1,2016-04-10T11:45:00Z,30.3486,-88.4185,1.48,13.4,1111122 
NERRS,ioos:station:NOAA.NERRS:gndpcwq:1,2016-04-10T12:45:00Z,30.3486,-88.4185,1.55,13.8,1111122 
NERRS,ioos:station:NOAA.NERRS:gndpcwq:1,2016-04-10T13:45:00Z,30.3486,-88.4185,1.63,13.5,1111122 
NERRS,ioos:station:NOAA.NERRS:gndpcwq:1,2016-04-10T14:45:00Z,30.3486,-88.4185,1.68,13.5,1111122 
NERRS,ioos:station:NOAA.NERRS:gndpcwq:1,2016-04-10T15:45:00Z,30.3486,-88.4185,1.72,13.9,1111122 
NERRS,ioos:station:NOAA.NERRS:gndpcwq:1,2016-04-10T16:45:00Z,30.3486,-88.4185,1.76,13.9,1111122 
NERRS,ioos:station:NOAA.NERRS:gndpcwq:1,2016-04-10T17:45:00Z,30.3486,-88.4185,1.75,13.9,1111122 
NERRS,ioos:station:NOAA.NERRS:gndpcwq:1,2016-04-10T18:45:00Z,30.3486,-88.4185,1.74,13.9,1111122 
NERRS,ioos:station:NOAA.NERRS:gndpcwq:1,2016-04-10T19:45:00Z,30.3486,-88.4185,1.69,13.8,1111122 
NERRS,ioos:station:NOAA.NERRS:gndpcwq:1,2016-04-10T20:45:00Z,30.3486,-88.4185,1.64,13.7,1111122 
NERRS,ioos:station:NOAA.NERRS:gndpcwq:1,2016-04-10T21:45:00Z,30.3486,-88.4185,1.54,13.6,1111122 
NERRS,ioos:station:NOAA.NERRS:gndpcwq:1,2016-04-10T22:45:00Z,30.3486,-88.4185,1.44,13.7,1111122 
NERRS,ioos:station:NOAA.NERRS:gndpcwq:1,2016-04-10T23:45:00Z,30.3486,-88.4185,1.36,13.7,1111122 
NERRS,ioos:station:NOAA.NERRS:gndpcwq:1,2016-04-11T00:45:00Z,30.3486,-88.4185,1.33,13.7,1111122 
NERRS,ioos:station:NOAA.NERRS:gndpcwq:1,2016-04-11T01:45:00Z,30.3486,-88.4185,1.33,13.7,1111122 
NERRS,ioos:station:NOAA.NERRS:gndpcwq:1,2016-04-11T02:45:00Z,30.3486,-88.4185,1.33,13.6,1111122 
NERRS,ioos:station:NOAA.NERRS:gndpcwq:1,2016-04-11T03:45:00Z,30.3486,-88.4185,1.35,13.6,1111122 
NERRS,ioos:station:NOAA.NERRS:gndpcwq:1,2016-04-11T04:45:00Z,30.3486,-88.4185,1.37,13.6,1111122 
NERRS,ioos:station:NOAA.NERRS:gndpcwq:1,2016-04-11T05:45:00Z,30.3486,-88.4185,1.36,13.6,1111122 
NERRS,ioos:station:NOAA.NERRS:gndpcwq:1,2016-04-11T06:45:00Z,30.3486,-88.4185,1.37,13.6,1111122 
NERRS,ioos:station:NOAA.NERRS:gndpcwq:1,2016-04-11T07:45:00Z,30.3486,-88.4185,1.39,13.6,1111122 
NERRS,ioos:station:NOAA.NERRS:gndpcwq:1,2016-04-11T08:45:00Z,30.3486,-88.4185,1.43,13.6,1111122 
NERRS,ioos:station:NOAA.NERRS:gndpcwq:1,2016-04-11T09:45:00Z,30.3486,-88.4185,1.47,13.6,1111122 
NERRS,ioos:station:NOAA.NERRS:gndpcwq:1,2016-04-11T10:45:00Z,30.3486,-88.4185,1.51,13.6,1111122 
NERRS,ioos:station:NOAA.NERRS:gndpcwq:1,2016-04-11T11:45:00Z,30.3486,-88.4185,1.55,13.7,1111122 
NERRS,ioos:station:NOAA.NERRS:gndpcwq:1,2016-04-11T12:45:00Z,30.3486,-88.4185,1.64,13.7,1111122 
NERRS,ioos:station:NOAA.NERRS:gndpcwq:1,2016-04-11T13:45:00Z,30.3486,-88.4185,1.65,13.7,1111122 
NERRS,ioos:station:NOAA.NERRS:gndpcwq:1,2016-04-11T14:45:00Z,30.3486,-88.4185,1.73,13.6,1111122 
NERRS,ioos:station:NOAA.NERRS:gndpcwq:1,2016-04-11T15:45:00Z,30.3486,-88.4185,1.78,13.4,1111122 
NERRS,ioos:station:NOAA.NERRS:gndpcwq:1,2016-04-11T16:45:00Z,30.3486,-88.4185,1.84,13.5,1111122 
NERRS,ioos:station:NOAA.NERRS:gndpcwq:1,2016-04-11T17:45:00Z,30.3486,-88.4185,1.83,13.6,1111122 
NERRS,ioos:station:NOAA.NERRS:gndpcwq:1,2016-04-11T18:45:00Z,30.3486,-88.4185,1.86,13.9,1111122 
NERRS,ioos:station:NOAA.NERRS:gndpcwq:1,2016-04-11T19:45:00Z,30.3486,-88.4185,1.81,13.9,1111122 
NERRS,ioos:station:NOAA.NERRS:gndpcwq:1,2016-04-11T20:45:00Z,30.3486,-88.4185,1.76,14.0,1111122 
NERRS,ioos:station:NOAA.NERRS:gndpcwq:1,2016-04-11T21:45:00Z,30.3486,-88.4185,1.62,14.1,1111122 
NERRS,ioos:station:NOAA.NERRS:gndpcwq:1,2016-04-11T22:45:00Z,30.3486,-88.4185,1.53,13.8,1111122 
NERRS,ioos:station:NOAA.NERRS:gndpcwq:1,2016-04-11T23:45:00Z,30.3486,-88.4185,1.43,14.0,1111122 
NERRS,ioos:station:NOAA.NERRS:gndpcwq:1,2016-04-12T00:45:00Z,30.3486,-88.4185,1.37,13.9,1111122 
NERRS,ioos:station:NOAA.NERRS:gndpcwq:1,2016-04-12T01:45:00Z,30.3486,-88.4185,1.35,13.8,1111122 
NERRS,ioos:station:NOAA.NERRS:gndpcwq:1,2016-04-12T02:45:00Z,30.3486,-88.4185,1.33,13.7,1111122 
NERRS,ioos:station:NOAA.NERRS:gndpcwq:1,2016-04-12T03:45:00Z,30.3486,-88.4185,1.31,13.7,1111122 
NERRS,ioos:station:NOAA.NERRS:gndpcwq:1,2016-04-12T04:45:00Z,30.3486,-88.4185,1.29,14.2,1111122 
NERRS,ioos:station:NOAA.NERRS:gndpcwq:1,2016-04-12T05:45:00Z,30.3486,-88.4185,1.27,14.0,1111122 
NERRS,ioos:station:NOAA.NERRS:gndpcwq:1,2016-04-12T06:45:00Z,30.3486,-88.4185,1.23,14.0,1111122 
NERRS,ioos:station:NOAA.NERRS:gndpcwq:1,2016-04-12T07:45:00Z,30.3486,-88.4185,1.22,14.1,1111122 
NERRS,ioos:station:NOAA.NERRS:gndpcwq:1,2016-04-12T08:45:00Z,30.3486,-88.4185,1.23,14.1,1111122 
NERRS,ioos:station:NOAA.NERRS:gndpcwq:1,2016-04-12T09:45:00Z,30.3486,-88.4185,1.28,14.0,1111122 
NERRS,ioos:station:NOAA.NERRS:gndpcwq:1,2016-04-12T10:45:00Z,30.3486,-88.4185,1.39,14.0,1111122 